COSMOS 2251 DEB, 34023

Orbit data source: Space-Track

COSMOS 2251 DEB, 34023 is space debris in LEO originally from a launch on Wed, 16 Jun 1993 UTC launched from the Plesetsk Missile And Space Complex (PKMTR). The debris from Iridium 33, an American commercial communications satellite, has been tracked extensively since its accidental collision with the defunct Russian satellite Cosmos 2251 in 2009. This event, occurring at high speed in low Earth orbit (LEO), generated thousands of pieces of space debris, significantly increasing the risk of further collisions. The Iridium 33 debris cloud has impacted space traffic management and orbital debris mitigation strategies, making it a subject of ongoing study in space situational awareness.

Loading next visibility...
Identifier
34023, 1993-036HJ
Orbit
LEO
Country
Flag of CISCIS
Related business
Manufacturer
Unknown
Mission
Spacecraft
Bus & Motor
Unknown
Mass
Unknown
Launch date (UTC)
1993-06-16 (33 years ago)
Launch vehicle
Unknown
Launch site
Plesetsk Missile And Space Complex (PKMTR)
Object type
Payload
Rocket body
Debris
Shape & HBR
Unknown shape, 0.2 m
Radar Cross Section
Small (<0.1 m²)

Expand to show TLE details & history
Last TLE update: 12 hours ago

TLE from 12 hours ago
0 COSMOS 2251 DEB
1 34023U 93036HJ  25355.09328639  .00000620  00000-0  20253-3 0  9996
2 34023  74.0244 236.2841 0018782 330.7165 187.9479 14.40576503883348
Epoch: 2025-12-21T02:14Z
TLE epoch observation values (Epoch: 2025-12-21T02:14:19.944Z)
Latitude
20.51439°
Longitude
-73.32609°
Altitude
772.111 km
Speed
7.463 km/s
True Right ascension
03h 20m 40s
True Declination
20° 24' 07"
Sunlit
Object was in full shadow at epoch
Visualization orbit readout
Latitude
Unknown
Longitude
Unknown
Altitude
Unknown
Speed
Unknown
Apparent Right ascension
Unknown
Apparent Declination
Unknown
Sunlit
N/A
Visualization observer readout
Local Sidereal Time
12:54:24
Azimuth
Unknown
Elevation
Unknown
Doppler factor
Unknown
Orbital elements
Apogee altitude
767.61 km
Perigee altitude
740.818 km
Semi-major axis
7,132.351 km
Eccentricity
0.00188
Inclination
74.0244°
RAAN
236.2841°
Arg. of periapsis
330.7165°
True anomaly
187.91821°
Mean anomaly
187.9479°
Eccentric anomaly
187.93305°
Mean motion
3.60325 °/min
Orbital period
99.91 mins
BSTAR
0.00020253
Loading maneuver chart data...
Computing Atmospheric mass density...
Loading historical data...
Loading historical data...
Loading historical data...
Loading historical data...
Loading historical data...
Loading historical data...
Loading historical data...

Documentation

Showing up to 5 results
|